COSMOS 1275 DEB

Satellite information

Favourite Embed

Satellite Type and Status

DEBRISIN ORBIT

Key statistics

Satellite COSMOS 1275 DEB at a glance.

Uptime

16210

Days in orbit

Revolutions

≈ 14.0

Per day

Orbit

LEO

Low Earth Orbit

Inclination

82.8

Latest

Satellite identification and parameters

Extended collection of information and parameters for COSMOS 1275 DEB.

Object identification

Identified? True

Debris? True

Object name: COSMOS 1275 DEB

International designator: 1981-053ED

Object number (NORAD): 12949

Object ID (CCSDS): 12949

Country: COMMONWEALTH OF INDEPENDENT STATES (CIS)

Current information (Y/N): Y

RCS size: SMALL

Orbital parameters

Period: 103.139 minutes

Inclination: 82.847 deg

SMA: 7285.19 km

Apoapsis: 930.298 km

Periapsis: 883.811 km

RAAN: 356.5106 deg

Eccentricy: 0.00319049

Argument of periapsis: 41.5353 deg

Mean anomaly: 139.8851 deg

Mean motion: 13.96180181 rev/day

Mean motion (dot): 0.00000911 rev/day2

B* drag term: 0.00064900682 1/REarth

Two-line elements (TLE)

Creation date: Oct. 20, 2025, 2:10 a.m.

Reference frame: TEME

Reference center: EARTH

Epoch: Oct. 19, 2025, 10:31 p.m. UTC

TLE line 0: 0 COSMOS 1275 DEB

TLE line 1: 1 12949U 81053ED 25292.93823653 .00000911 00000-0 64901-3 0 9995

TLE line 2: 2 12949 82.8470 356.5106 0031905 41.5353 139.8851 13.96180181227263

Live tracking on map

Real-time ground track for satellite COSMOS 1275 DEB.

In-orbit conjunctions

A list of the most updated potential collisions computed for object COSMOS 1275 DEB.

Target Orbit TCA Probability of collision Miss distance Type
DELTA 1 DEB SSO 2025-05-04 09:58:04 0.0001142941 73.0 (m) DEBRIS
FENGYUN 1C DEB SSO 2025-03-11 06:17:40 0.0002484372 50.0 (m) DEBRIS
SL-3 R/B LEO 2024-12-22 19:02:45 0.0004117569 157.0 (m) ROCKET BODY
SL-14 DEB LEO 2024-11-16 09:39:11 0.0001944389 780.0 (m) DEBRIS

Associated space launch

Navigation satellite providing location information for the Tsiklon-B navigation system

COSMOS 1275 DEB was lifted into orbit during the mission ‘Kosmos-3M | Parus 27’, on board a Kosmos-3M space rocket.

The launch took place on June 4, 1981, 3:41 p.m. from 132/2.

For more information about the launch, click the button.

Launch to space Kosmos-3M | Parus 27
Kosmos-3M | Parus 27

Agency: N/A

Status: Launch Successful

Launch date: June 4, 1981, 3:41 p.m. UTC

Rocket: Kosmos-3M

Launch pad: 132/2

Location: Plesetsk Cosmodrome, Russian Federation

...

Latest news about this satellite

There are no fresh news available about this satellite. Check back as we update our databases every day.


Newsletter sign-up

Weekly statistics, charts and insights to help you stay on top of the space industry.